Location: Drummondville
(45.8830°N, 72.4830°W)
Time: 02:09:41
(UTC-04:00)

N. Korean satellite - Visible Passes

Search period start: 23 October 2017 00:00
Search period end: 02 November 2017 00:00
Orbit: 459 x 517 km, 97.2° (Epoch: 22 October)

Date Brightness Start Highest point End Pass type
(mag) Time Alt. Az. Time Alt. Az. Time Alt. Az.
23 Oct 7.2 19:02:50 10° S 19:06:17 57° W 19:09:43 10° NNW visible
24 Oct 6.4 18:39:28 10° SSE 18:42:56 70° ENE 18:46:23 10° N visible
25 Oct 7.1 18:16:28 10° SE 18:19:39 34° ENE 18:22:49 10° N visible
25 Oct 9.7 19:51:12 10° SW 19:53:18 15° W 19:55:26 10° NW visible
26 Oct 8.7 19:26:46 10° SSW 19:29:47 28° W 19:32:50 10° NW visible
27 Oct 9.8 06:51:44 10° NE 06:54:14 18° E 06:56:45 10° SE visible
27 Oct 7.2 19:02:56 10° S 19:06:21 56° W 19:09:46 10° NNW visible
28 Oct 6.4 18:39:33 10° SSE 18:42:59 70° ENE 18:46:26 10° N visible
29 Oct 7.1 18:16:31 10° SE 18:19:41 35° ENE 18:22:51 10° N visible
29 Oct 9.7 19:51:17 10° SW 19:53:21 15° W 19:55:26 10° NW visible
30 Oct 8.7 19:26:48 10° SSW 19:29:49 28° W 19:32:51 10° NW visible
31 Oct 9.8 06:51:42 10° NE 06:54:16 18° E 06:56:51 10° SE visible
31 Oct 7.2 19:02:58 10° S 19:06:22 55° W 19:09:47 10° NNW visible
01 Nov 10.6 06:30:32 10° E 06:30:41 10° E 06:30:51 10° E visible
01 Nov 6.3 18:39:33 10° SSE 18:42:58 71° ENE 18:46:26 10° N visible
